Flag for Canada Weather past 2 weeks in Newmarket, Ontario, Canada

Now
54 °F

Clear.


Feels Like: 54 °F
Forecast: 55 / 73 °F
Wind: No wind

Location: Borden

Current Time: Aug 29, 2015 at 5:26:38 AM

Latest Report: Aug 29, 2015 at 4:00 AM


Visibility: 6 mi

Pressure: 30.13 "Hg

Humidity: 100%

Dew point: 54 °F

Location of NewmarketLocation

Historic Weather in Newmarket — Graph

°F

Newmarket temperature yesterday

Maximum temperature yesterday: 75 °F (at 5:00 PM)
Minimum temperature yesterday: 46 °F (at 4:04 AM)
Average temperature yesterday: 60 °F

Past Weeks' High & Low Weather Summary

 TemperatureHumidityPressure
High88 °F (Aug 16, 2:00 PM)100% (Aug 14, 11:01 PM)30.22 "Hg (Aug 14, 11:01 PM)
Low43 °F (Aug 22, 6:00 AM)40% (Aug 16, 4:00 PM)29.66 "Hg (Aug 20, 7:00 AM)
Average66 °F82%29.99 "Hg
* Reported Aug 14 3:00 AM — Aug 29 3:00 AM, Newmarket, Weather by CustomWeather, © 2015

Note: Actual official high and low records may vary slightly from our data, if they occured in-between our weather recording intervals... More about our weather records

Advertising

Newmarket weather history for previous 24 hours

 ConditionsComfort  
Time TempWeatherWind HumidityBarometerVisibility
3:00 AM
Sat, Aug 29
54 °FClear.3 mph94%30.14 "Hg3 mi
2:00 AM52 °FClear.2 mph100%30.15 "Hg9 mi
1:00 AM54 °FClear.No wind100%30.16 "Hg9 mi
12:00 AM54 °FClear.No wind100%30.16 "Hg8 mi
11:00 PM
Fri, Aug 28
57 °FClear.5 mph94%30.15 "Hg9 mi
10:00 PM57 °FClear.No wind94%30.15 "Hg9 mi
9:00 PM59 °FSunny.No wind94%30.15 "Hg9 mi
8:00 PM64 °FSunny.3 mph83%30.15 "Hg9 mi
7:00 PM72 °FSunny.3 mph65%30.14 "Hg9 mi
6:00 PM73 °FPassing clouds.7 mph57%30.15 "Hg9 mi
5:00 PM75 °FScattered clouds.3 mph50%30.13 "Hg9 mi
4:00 PM73 °FPartly sunny.2 mph53%30.15 "Hg9 mi
3:00 PM72 °FPartly sunny.5 mph61%30.16 "Hg9 mi
2:00 PM72 °FPartly sunny.2 mph57%30.18 "Hg9 mi
1:00 PM70 °FOvercast.3 mph64%30.19 "Hg9 mi
12:00 PM68 °FMostly cloudy.2 mph69%30.20 "Hg9 mi
11:00 AM66 °FPartly sunny.5 mph73%30.21 "Hg9 mi
10:46 AM66 °FPartly sunny.No wind73%30.20 "Hg9 mi
10:00 AM64 °FPassing clouds.3 mph78%30.21 "Hg9 mi
9:00 AM57 °FSunny.2 mph100%30.22 "Hg9 mi
8:00 AM52 °FOvercast.No wind100%30.22 "Hg9 mi
7:48 AM52 °FOvercast.No wind100%30.21 "Hg9 mi
7:00 AM46 °FPassing clouds.No wind100%30.21 "Hg9 mi
6:00 AM46 °FClear.2 mph100%30.19 "Hg9 mi
5:49 AM46 °FClear.2 mph100%30.17 "Hg1 mi
5:00 AM46 °FClear.No wind100%30.18 "Hg1 mi
Weather by CustomWeather, © 2015

See weather overviewHow to use our weather pages